COSMOS 2317 (GLONASS)

Satellite information

Favourite Embed

Satellite Type and Status

PAYLOADIN ORBIT

Key statistics

Satellite COSMOS 2317 (GLONASS) at a glance.

Uptime

11101

Days in orbit

Revolutions

≈ 2.1

Per day

Orbit

MEO

Medium Earth Orbit

Inclination

65.5

Latest

Satellite identification and parameters

Extended collection of information and parameters for COSMOS 2317 (GLONASS).

Object identification

Identified? True

Debris? False

Object name: COSMOS 2317 (GLONASS)

International designator: 1995-037B

Object number (NORAD): 23621

Object ID (CCSDS): 23621

Country: COMMONWEALTH OF INDEPENDENT STATES (CIS)

Current information (Y/N): Y

RCS size: LARGE

Orbital parameters

Period: 675.734 minutes

Inclination: 65.4762 deg

SMA: 25508.047 km

Apoapsis: 19154.153 km

Periapsis: 19105.672 km

RAAN: 209.1 deg

Eccentricy: 0.00095031

Argument of periapsis: 163.0505 deg

Mean anomaly: 17.0258 deg

Mean motion: 2.13101715 rev/day

Mean motion (dot): 0.00000033 rev/day2

B* drag term: 0.0 1/REarth

Two-line elements (TLE)

Creation date: Dec. 9, 2025, 1:02 p.m.

Reference frame: TEME

Reference center: EARTH

Epoch: Dec. 9, 2025, 3:20 a.m. UTC

TLE line 0: 0 COSMOS 2317 (GLONASS)

TLE line 1: 1 23621U 95037B 25343.13910462 .00000033 00000-0 00000-0 0 9997

TLE line 2: 2 23621 65.4762 209.1000 0009503 163.0505 17.0258 2.13101715236202

Live tracking on map

Real-time ground track for satellite COSMOS 2317 (GLONASS).

In-orbit conjunctions

A list of the most updated potential collisions computed for object COSMOS 2317 (GLONASS).

Target Orbit TCA Probability of collision Miss distance Type
SL-12 R/B(2) MEO 2025-10-14 08:18:57 TBA 1378.0 (m) ROCKET BODY

Associated space launch

GLONASS navigation satellites

COSMOS 2317 (GLONASS) was lifted into orbit during the mission ‘Proton | Uragan 66 to 68’, on board a Proton space rocket.

The launch took place on July 24, 1995, 3:52 p.m. from 200/39 (200L).

For more information about the launch, click the button.

Launch to space Proton | Uragan 66 to 68
Proton | Uragan 66 to 68

Agency: N/A

Status: Launch Successful

Launch date: July 24, 1995, 3:52 p.m. UTC

Rocket: Proton

Launch pad: 200/39 (200L)

Location: Baikonur Cosmodrome, Republic of Kazakhstan

...

Latest news about this satellite

There are no fresh news available about this satellite. Check back as we update our databases every day.


Newsletter sign-up

Weekly statistics, charts and insights to help you stay on top of the space industry.